軌道要素
Epoch 2011 Dec. 25.0 TT = JDT 2455920.5
T 2011 Dec. 11.02101 TT Kobayashi
q 1.5753136 (2000.0) P Q
n 0.15516889 Peri. 329.38797 +0.25339694 +0.96108583
a 3.4297801 Node 315.03094 -0.85301985 +0.16835767
e 0.5406955 Incl. 8.95585 -0.45623144 +0.21901993
P 6.35
From 695 observations 1993 Mar. 21-2012 Dec. 9, mean residual 0".8.
Nongravitational parameters A1 = +0.67, A2 = -0.0330.
|